Starlink 30524

operational
NORAD ID: 57965 Int'l Des: 2023-151 Owner: SPXS Country: US Constellation: starlink
LEOCIRCULAR

Über Starlink 30524

Beschreibung wird geladen...

Live-Position

3D-Globus wird geladen...

Nächste Überflüge

Höhenverlauf

Altitude vs Time

uPlot chart will show altitude changes over time

Zweizeiliger Elementsatz

1 57965U 23151B 25352.49681357 .00000196 00000-0 29578-4 0 9995
2 57965 43.0041 59.6801 0001424 269.9572 90.1107 15.02535315123527
Epoch: 18. Dez. 2025 • Age: 18 hours

Aktueller Status

Höhe 560.9 km
Geschwindigkeit 7.59 km/s
Subsatellitenpunkt 33.03°N, 74.16°W
Startdatum 30. Sept. 2023
Alter 2.2 years
Typ internet

Technische Details

Klassifizierung Payload
Masse 730.00 kg
Trockenmasse 700.00 kg
Gesamtmasse 730.00 kg
Länge 0.30 m
Durchmesser 4.10 m
Spannweite 29.00 m
Form Box + pan
Hersteller SPXS
Bus-Typ Starlink V2M
Phasenstatus In Orbit
Besitzer/Staat SPXS/US

Große Konstellationen

Loading constellations...